Location: Adrasan
(36.3319°N, 30.4314°E)
Time: 08:35:06
(UTC+00:00)

SKYMED 2 - Pass Details

Date: 09 December 2023
Orbit: 621 x 623 km, 97.9° (Epoch: 01 March)

Event Time Altitude Azimuth Distance (km) Brightness Sun altitude
Exits shadow 16:11:42 - 8° (N) 2,364 6.3 -17.4°
Reaches altitude 10° 16:12:35 10° 7° (N) 2,001 5.9 -17.5°
Maximum altitude 16:16:54 70° 285° (WNW) 666 3.8 -18.4°
Drops below altitude 10° 16:21:13 10° 201° (SSW) 1,988 6.6 -19.2°
Sets 16:23:24 0° 199° (SSW) 2,890 7.5 -19.6°
